Wind_Speed
59 59 59 59 59 59 60 59 59 58 58 56 55 54 53 53 53 52 52 51 51 51 50 50 49 48 48 47 47 45 44 42 41 41 40 40 39 38 38 37 37 37 37 37 37 37 36 36 36 36 36 37 39 40 42 44 45 47 48 49 50 51 52 54 57 60 63 64 65 64 63 62 61 60 59 59 58 58 58 58 57 55 53 51 48 46
59 59 59 58 58 58 59 59 58 57 57 56 54 53 52 52 53 53 52 52 51 50 50 50 49 50 50 50 50 49 48 46 45 44 44 43 41 40 39 38 37 37 37 36 36 36 35 35 34 34 34 36 38 39 41 42 43 44 45 46 46 46 46 46 47 50 53 55 56 57 57 57 58 58 57 57 57 57 57 56 55 54 52 50 48 47
58 59 59 59 58 58 58 57 56 55 55 54 53 53 52 52 52 52 52 51 50 50 49 50 51 52 53 53 53 52 51 50 49 48 46 45 44 42 41 40 39 39 38 37 37 36 35 34 33 33 35 37 38 38 39 41 42 42 43 43 43 41 40 40 40 42 44 47 49 51 52 54 55 55 56 56 55 55 55 54 53 52 51 49 48 47
57 58 59 59 60 59 57 55 54 53 53 53 53 53 53 52 52 51 50 49 48 48 49 51 52 54 56 56 56 54 53 52 51 49 48 47 46 45 44 43 42 41 39 39 38 37 36 34 33 34 36 37 37 37 37 38 39 40 41 41 40 39 38 38 39 39 40 42 45 48 49 51 52 53 54 54 54 54 53 52 52 51 50 49 48 47
56 57 58 59 60 61 59 56 53 52 52 52 53 53 53 51 50 48 47 46 46 47 49 52 55 57 58 59 57 55 53 52 51 50 49 48 47 46 45 43 42 41 40 39 38 37 36 35 35 35 35 35 35 34 34 34 34 35 36 37 37 37 37 37 38 39 40 41 43 45 47 49 50 51 52 53 53 52 51 51 50 49 49 48 47 47
55 55 57 58 60 61 61 57 54 53 52 52 53 52 51 49 47 45 45 45 46 48 51 54 57 59 61 60 58 55 53 52 51 50 49 49 47 46 44 43 42 41 40 39 38 37 35 35 34 34 33 33 32 30 29 27 27 28 29 31 32 34 35 37 38 39 40 41 42 44 45 47 49 50 51 51 51 51 50 50 49 48 47 47 47 46
54 54 53 56 60 62 61 58 55 53 52 52 52 51 50 47 45 43 44 45 48 50 54 57 60 61 61 59 56 54 52 51 51 50 49 48 46 45 43 42 41 40 39 38 37 35 34 32 31 31 30 30 29 27 25 23 23 25 26 27 29 30 32 35 37 39 40 41 42 44 45 46 47 48 49 49 50 50 50 49 48 47 46 45 45 46
51 51 50 54 59 63 61 57 54 52 51 49 49 49 48 45 44 44 46 48 51 54 58 61 63 62 59 56 54 52 51 51 50 49 48 46 45 43 42 40 39 39 38 37 35 33 31 30 29 28 28 28 27 26 25 24 25 26 26 26 26 28 30 32 35 37 39 40 41 42 44 45 46 46 47 47 48 49 50 49 48 46 45 44 44 45
47 48 50 55 60 62 60 57 54 51 48 46 45 44 44 44 46 48 51 53 56 59 61 63 63 60 55 53 51 50 50 49 49 49 48 47 45 43 41 39 37 36 36 35 33 31 29 27 27 26 26 27 27 27 27 28 28 28 28 28 27 28 29 30 32 34 36 37 37 38 40 41 42 43 44 45 47 48 49 49 47 45 44 44 44 44
45 48 53 58 60 59 57 55 53 50 46 44 42 42 43 46 49 53 56 59 61 62 62 61 58 54 52 50 49 49 49 49 50 50 49 49 47 44 40 37 35 34 33 31 30 28 26 25 24 24 25 26 27 28 29 30 31 31 31 31 31 31 30 30 30 31 32 33 33 34 35 37 39 41 42 44 46 48 49 48 46 45 44 44 43 43
47 51 56 59 59 56 52 50 49 47 46 45 45 46 47 50 54 58 62 65 64 61 58 54 50 48 48 48 48 48 49 50 52 52 52 50 47 44 40 36 33 31 29 28 27 26 25 23 23 23 24 25 27 29 30 31 32 33 33 33 33 32 31 30 30 29 30 30 31 31 32 34 36 39 41 44 46 48 48 47 46 45 44 44 44 43
51 56 58 58 55 51 49 47 47 47 48 50 52 54 56 58 60 62 65 64 61 56 51 47 45 45 45 47 47 47 47 50 53 55 54 52 48 44 40 36 33 30 28 26 25 25 24 23 23 23 24 26 28 30 31 32 32 32 32 31 31 31 31 30 30 29 30 30 30 30 32 33 35 37 40 42 44 46 47 46 45 45 44 44 44 44
55 57 58 55 51 48 48 49 51 53 55 57 59 61 63 63 62 61 60 57 52 48 45 44 44 45 46 46 45 45 46 50 54 57 56 52 48 43 40 37 34 31 28 25 24 23 24 24 25 25 26 27 28 30 30 31 31 30 30 29 29 30 30 30 30 29 29 29 29 30 31 33 34 36 38 40 43 44 45 46 45 45 45 45 45 45
55 56 56 52 50 49 51 53 56 58 60 60 61 62 62 60 58 54 51 47 45 43 43 44 46 47 47 46 45 46 48 53 57 58 55 50 45 41 39 37 34 31 28 26 25 24 24 25 26 27 27 27 27 27 28 28 28 28 28 28 28 29 29 29 29 29 28 28 28 29 31 32 34 35 37 40 42 43 44 45 45 45 45 45 46 46
54 54 54 54 54 55 57 58 59 60 60 59 59 58 57 54 50 46 43 41 42 42 44 45 47 48 49 49 49 50 53 57 59 57 53 47 42 39 37 36 34 31 28 26 25 24 24 25 26 26 25 24 24 24 24 24 25 26 27 27 28 28 28 28 29 28 27 26 27 29 31 33 35 36 38 40 41 42 43 44 44 45 45 46 46 46
52 51 52 55 58 61 62 62 62 62 60 58 56 53 50 46 42 40 39 40 43 45 46 48 49 51 52 51 51 53 56 58 57 54 50 45 40 37 36 35 33 30 27 25 23 22 22 23 23 23 23 22 21 21 22 23 25 26 27 28 28 28 29 30 30 29 28 27 28 30 32 34 36 37 38 40 40 41 42 43 44 44 45 45 46 46
48 48 50 54 59 62 64 64 63 62 60 57 53 48 44 40 38 38 39 42 45 47 49 51 53 55 56 53 51 51 53 55 53 50 47 43 39 36 35 34 33 30 26 24 22 21 21 22 22 22 22 22 23 24 26 28 29 30 30 29 28 29 30 32 32 31 31 31 31 32 33 34 36 37 38 39 40 40 41 42 43 44 45 45 46 46
47 49 52 55 59 63 64 65 63 61 57 53 48 43 38 36 36 38 41 44 47 50 53 54 55 56 57 56 52 48 48 50 49 47 45 43 40 37 35 34 32 29 27 24 23 23 23 24 24 24 25 25 26 28 31 33 34 34 33 31 30 29 31 33 34 34 34 34 34 34 34 35 35 36 37 38 39 40 41 42 43 44 45 45 46 46
50 53 56 59 62 64 64 63 60 56 52 47 42 38 36 35 37 40 44 47 50 53 55 56 56 55 54 53 50 46 45 45 46 45 44 43 41 38 35 34 32 30 29 28 26 26 26 27 28 29 29 30 31 32 35 37 38 37 35 33 30 30 31 33 35 36 36 36 36 35 35 35 35 36 37 37 38 39 40 42 43 44 45 45 46 46
55 57 59 61 62 63 62 58 54 50 46 41 37 35 35 37 40 44 47 50 52 54 55 56 55 53 50 49 47 44 43 43 44 44 44 43 41 38 35 35 34 34 33 31 30 29 30 31 32 33 34 35 36 37 39 39 39 37 35 32 30 29 30 32 35 36 37 37 37 36 36 36 36 37 37 38 38 39 40 41 42 44 44 45 46 46
57 58 58 58 58 57 55 51 48 44 40 36 33 33 36 39 43 47 50 53 54 54 53 52 51 49 47 46 45 43 41 42 42 43 43 43 41 38 36 37 37 37 37 35 33 33 33 35 36 37 38 39 40 41 41 40 38 35 32 30 28 28 28 30 33 36 37 37 37 37 37 38 38 39 39 39 39 40 40 41 42 43 44 45 46 47
53 54 53 51 50 49 48 46 44 40 36 33 33 34 37 41 45 50 52 53 53 51 50 49 47 46 45 45 43 42 41 41 41 41 42 42 42 40 39 39 40 40 39 37 36 35 36 38 39 40 41 42 42 41 40 38 35 32 30 28 27 26 26 28 31 33 35 36 37 37 38 39 40 41 41 41 41 41 41 42 42 43 44 45 47 48
47 47 47 46 44 44 43 43 42 40 37 34 33 34 37 40 45 49 50 50 49 48 47 47 46 45 44 43 42 41 40 40 39 40 41 42 43 42 41 41 41 41 41 40 39 39 39 40 41 42 42 42 41 40 37 35 33 31 29 27 25 24 24 25 28 30 32 34 35 37 39 41 41 42 42 42 42 42 42 42 43 43 44 46 47 48
42 43 43 43 42 42 42 42 41 40 37 35 34 34 36 39 42 44 45 45 45 45 45 45 45 44 43 43 42 42 41 39 39 39 40 42 44 44 43 43 43 43 43 43 42 42 42 42 42 42 42 41 40 38 36 35 33 31 29 26 23 21 22 23 26 28 31 33 36 39 40 41 41 41 41 42 42 42 42 42 43 43 44 45 47 48
40 41 41 40 40 40 40 40 39 38 36 35 35 34 35 37 38 40 40 41 41 42 43 44 44 44 44 43 43 42 41 39 39 39 40 43 45 45 44 43 44 45 46 45 44 44 44 44 43 43 42 41 40 39 38 36 34 32 28 23 20 19 20 22 25 27 30 34 37 39 40 40 40 40 41 41 41 41 41 41 42 42 43 44 45 46
38 38 38 38 38 38 38 37 37 35 34 34 34 34 34 36 37 38 39 39 40 41 42 43 44 44 44 44 43 43 41 40 39 39 40 42 45 45 44 44 44 45 47 47 46 46 46 45 45 43 42 42 41 40 39 37 34 30 26 21 18 17 18 21 24 27 30 32 35 37 38 38 39 39 39 40 40 40 40 40 40 40 41 42 43 45
37 36 36 37 37 38 38 37 36 35 33 32 32 33 34 36 38 39 40 40 40 41 42 43 44 44 44 43 43 42 41 41 40 40 41 42 44 45 45 45 45 46 47 47 47 46 46 45 44 44 42 42 41 40 38 36 32 28 24 20 16 16 17 20 23 26 28 31 33 34 35 36 37 37 37 37 37 37 37 37 38 38 39 40 42 43
36 36 36 36 36 36 36 35 33 32 32 32 32 32 33 35 37 39 39 39 40 40 41 42 43 43 43 43 42 41 41 40 40 40 40 41 43 45 45 45 45 46 46 47 47 46 45 44 43 43 42 42 41 39 37 34 31 27 22 18 15 15 16 19 22 25 27 29 30 31 33 33 34 34 34 34 34 34 34 34 35 36 37 39 40 42
35 35 34 34 34 33 33 32 32 32 32 32 32 32 33 34 36 37 38 39 39 39 40 40 41 41 42 42 42 41 40 40 39 39 39 40 42 44 44 44 44 44 44 45 46 46 44 43 42 42 42 42 40 38 35 32 28 24 20 16 14 13 15 18 21 23 25 27 28 29 30 30 31 32 32 31 31 31 31 31 31 33 34 37 38 40
34 33 32 32 32 31 31 32 32 32 32 32 32 33 33 34 35 36 37 37 37 37 38 38 39 39 40 41 42 42 41 39 38 37 38 39 41 43 43 43 42 42 42 43 44 45 44 43 42 42 42 41 38 35 32 29 25 21 17 13 11 11 13 16 19 21 23 24 25 26 27 27 28 29 29 29 29 28 28 28 28 30 32 34 36 37
33 32 32 31 31 32 32 33 33 33 33 33 33 33 33 33 34 34 34 34 34 35 35 36 37 37 37 38 39 41 41 39 37 36 37 38 39 41 41 41 41 40 39 39 40 42 44 44 43 42 41 39 35 32 29 26 22 18 14 11 9 9 11 14 17 19 20 21 22 23 24 24 25 26 26 26 26 26 26 26 26 28 29 30 32 34
33 33 33 33 33 33 33 34 34 34 34 34 34 33 33 33 32 32 32 32 31 32 33 34 35 35 36 36 37 38 39 38 36 35 35 35 37 39 39 39 39 38 37 36 36 38 41 44 44 42 39 36 33 29 26 23 19 15 11 8 7 8 10 13 15 17 18 19 19 20 20 21 22 22 22 23 23 23 23 23 24 25 26 27 28 30
34 34 34 34 34 34 35 35 35 35 35 34 34 33 32 31 31 30 30 29 29 29 30 32 33 34 34 35 35 36 36 35 34 32 32 33 35 36 37 37 37 37 36 35 35 36 38 42 43 41 37 33 30 27 23 19 15 11 8 6 6 7 9 11 13 14 15 15 16 16 17 17 18 18 18 18 18 18 19 19 20 21 22 23 24 25
35 35 35 35 35 35 35 35 35 34 34 33 32 32 31 30 29 28 28 27 27 27 28 29 30 32 33 34 35 35 35 33 31 30 29 30 32 34 34 34 34 35 35 35 35 36 37 39 40 39 36 31 27 23 20 16 11 7 5 5 6 7 8 10 11 11 12 12 13 13 14 14 14 14 14 14 13 13 13 14 15 16 17 18 19 20
36 36 36 36 36 36 35 35 34 33 32 32 31 30 29 28 28 27 26 26 26 26 26 27 28 29 30 32 33 34 33 31 29 27 26 27 29 31 32 32 32 32 33 34 34 36 37 37 37 35 33 29 24 19 16 13 9 5 3 4 5 6 7 8 9 9 10 11 12 14 14 15 15 15 15 14 12 11 10 10 11 12 13 14 15 15
37 37 36 36 35 35 34 34 33 32 31 30 29 28 27 27 26 26 25 25 25 25 25 25 26 26 27 28 30 31 31 29 27 25 24 24 25 27 28 29 29 30 30 32 33 35 36 36 34 32 30 27 22 17 12 8 5 3 3 4 5 6 6 7 7 8 10 12 13 15 15 16 16 15 15 14 13 11 9 8 8 9 11 12 12 13
37 36 36 35 34 34 33 33 32 31 30 29 28 27 26 26 25 25 25 25 25 24 24 24 24 24 25 25 26 27 27 26 24 23 21 21 22 24 25 27 27 27 28 30 32 33 34 33 32 29 26 23 20 16 11 5 2 2 3 4 5 5 5 6 8 9 11 13 13 13 13 12 10 8 6 5 5 6 6 6 5 6 8 10 11 12
36 35 35 34 33 33 32 32 31 30 29 28 27 26 26 25 25 25 25 24 24 24 24 24 24 23 23 23 23 23 23 23 22 21 20 20 20 22 24 25 25 25 26 27 29 31 31 31 30 27 24 21 17 14 10 4 1 2 4 5 5 5 5 7 9 11 12 12 11 10 8 5 4 4 5 4 3 2 2 2 2 3 5 7 10 11
35 34 33 33 32 32 31 31 30 29 28 27 26 26 25 25 25 25 25 24 24 24 24 23 23 23 22 21 21 21 21 20 20 20 19 20 20 21 23 24 24 24 25 25 27 28 29 29 27 25 23 20 15 11 7 3 0 3 4 5 5 6 6 8 9 10 10 9 8 7 6 7 8 10 9 5 1 4 5 5 3 2 3 5 8 10
33 33 32 32 31 31 30 30 29 28 27 27 26 26 25 25 25 25 24 24 24 23 23 23 23 22 21 20 20 19 19 19 19 19 20 20 20 21 22 23 24 24 24 24 25 26 26 26 24 22 21 18 14 9 5 2 2 4 5 5 6 6 7 8 9 9 8 7 6 6 7 9 10 11 10 5 2 5 6 7 6 6 4 5 6 8
32 32 31 31 30 30 29 29 28 27 27 26 26 26 26 26 26 26 25 24 24 23 23 23 23 22 20 19 19 18 18 19 19 20 20 20 20 21 21 22 23 23 24 24 24 24 23 23 22 20 18 15 12 7 4 2 3 5 6 7 7 8 8 9 9 8 6 5 5 6 8 9 11 12 11 5 1 5 7 7 7 8 8 8 8 9
31 31 31 30 30 29 29 28 27 27 27 26 26 26 26 26 27 27 26 25 25 24 24 24 23 22 21 19 18 18 18 19 19 20 20 20 20 20 20 21 22 23 23 23 22 21 20 20 19 18 16 13 9 5 2 3 5 6 7 8 8 8 8 8 8 6 4 3 5 7 10 11 12 13 11 6 1 5 6 7 7 7 8 9 10 10
30 30 30 30 30 29 28 28 27 27 27 27 27 26 26 26 27 27 27 26 25 25 24 24 24 23 22 20 20 19 19 19 19 19 19 18 18 19 19 20 21 21 21 21 21 19 18 17 16 15 13 10 6 3 2 5 7 8 8 9 9 9 8 7 6 5 3 4 7 10 12 13 14 14 12 7 1 3 5 6 6 6 7 8 9 11
30 30 30 29 29 29 28 28 28 28 27 27 27 27 26 26 26 26 26 26 25 24 24 24 23 23 22 22 22 22 20 19 18 17 17 17 17 18 19 19 20 20 20 19 19 18 16 14 13 12 10 7 4 2 4 6 8 9 9 10 10 9 8 7 5 4 4 6 9 12 13 15 16 15 13 9 4 2 3 4 5 5 5 6 8 10
29 29 29 29 29 29 28 28 28 28 28 28 27 27 26 26 25 25 25 25 24 24 23 23 23 23 23 23 23 23 21 19 18 17 16 16 17 17 18 18 18 18 18 17 17 16 15 13 12 10 7 5 2 2 5 8 10 11 11 11 10 10 9 7 6 4 5 8 10 12 14 16 17 16 15 11 7 4 3 3 4 4 5 6 7 9
29 29 29 29 29 29 29 29 29 29 29 28 27 27 26 25 25 24 24 24 23 23 22 22 22 23 23 23 23 23 22 20 19 18 18 18 17 17 17 18 17 17 16 16 15 14 13 12 11 8 6 3 1 4 7 9 11 12 12 12 11 11 9 8 6 5 7 9 11 13 14 16 16 15 14 13 10 6 4 3 4 4 5 7 7 8
28 28 28 29 29 29 29 29 29 29 29 28 27 26 25 24 24 23 23 22 22 22 21 21 21 22 22 22 22 22 22 22 21 21 20 19 18 18 17 17 16 16 15 15 14 13 13 11 9 7 4 2 2 6 9 11 12 12 13 13 12 11 10 8 7 7 8 10 12 13 14 14 13 13 12 12 10 8 6 5 4 5 6 7 8 9
28 28 28 29 29 29 29 29 29 29 29 28 26 25 24 24 23 23 22 22 21 21 21 21 21 21 21 21 21 21 22 22 22 22 21 20 19 18 17 16 15 15 14 13 13 12 11 10 8 5 2 1 4 7 10 12 13 13 13 13 13 12 11 9 8 8 9 11 12 13 12 11 11 10 10 10 10 9 8 7 6 5 5 5 6 7
27 28 28 29 29 30 30 30 29 29 28 27 26 25 24 23 23 22 22 21 21 20 21 21 21 21 21 21 21 21 21 22 22 22 22 21 20 19 17 16 15 14 13 12 12 11 9 8 6 3 1 3 6 9 12 13 13 14 14 14 13 12 11 10 9 9 10 11 12 12 11 10 10 10 9 9 9 9 9 8 8 7 6 6 5 5
27 27 28 29 29 29 29 29 29 28 28 27 26 25 24 23 22 22 21 20 20 20 20 20 20 21 21 20 21 21 21 21 22 22 21 21 20 19 18 17 15 13 12 11 10 9 8 6 3 1 3 6 8 10 12 13 14 14 14 13 13 12 11 10 10 10 11 11 11 11 11 10 9 9 10 10 10 10 10 10 10 9 8 7 6 5
27 27 28 28 29 29 29 28 28 28 27 27 26 26 25 24 23 22 21 20 19 19 19 19 20 20 20 20 20 21 21 21 21 21 21 21 20 20 19 18 16 14 12 10 8 7 5 3 1 2 5 8 10 11 12 13 14 14 14 13 12 11 11 11 11 11 11 11 11 11 10 9 9 10 11 11 11 11 12 12 12 12 11 9 8 7
Wind_Direction
309 309 309 310 310 311 311 312 313 314 314 314 314 313 312 311 311 310 309 308 308 307 308 309 311 312 312 312 312 311 310 309 309 308 307 306 304 302 300 298 297 295 293 291 289 286 284 282 280 280 279 278 277 275 272 269 266 263 261 260 258 257 256 255 255 254 254 254 255 255 255 255 255 254 254 253 252 251 250 249 249 249 249 249 251 252
309 309 310 311 312 312 313 314 314 314 314 314 313 313 312 311 310 309 309 308 309 310 311 312 313 314 314 314 313 312 311 311 310 310 309 307 306 303 301 300 298 296 293 291 289 287 284 283 283 284 284 283 280 278 276 272 269 265 263 260 257 255 253 253 253 252 251 250 250 250 250 251 251 251 251 251 250 249 248 248 247 247 246 246 246 247
310 311 311 312 313 313 314 315 315 314 313 313 313 312 312 311 310 310 310 311 312 312 312 312 312 313 313 314 313 312 311 311 311 310 310 309 308 306 305 303 301 299 296 294 291 288 285 284 285 286 286 283 282 280 278 275 271 268 264 260 257 254 253 253 253 252 251 248 247 246 246 247 248 248 249 249 248 247 246 246 245 244 243 243 243 244
312 312 313 313 314 314 315 316 315 314 313 313 313 313 313 313 313 313 314 314 314 312 310 309 309 310 311 312 312 312 311 311 311 310 310 309 308 307 306 304 302 300 298 295 292 289 287 284 284 283 282 281 280 280 278 276 274 270 266 262 259 256 255 255 255 254 252 250 248 246 245 244 245 246 246 247 246 246 245 244 243 242 240 240 240 241
313 314 315 315 315 315 317 317 316 315 314 313 314 314 315 316 316 316 316 315 311 307 304 304 305 307 309 311 311 311 311 311 311 311 310 309 308 307 305 304 302 299 297 294 292 289 287 285 283 281 280 279 278 277 277 277 277 276 272 267 263 260 258 257 256 254 253 251 250 248 245 244 243 243 244 245 245 244 243 242 241 239 238 237 237 238
315 316 316 315 314 314 316 317 317 315 315 315 316 317 318 318 318 317 314 309 304 300 298 300 303 306 308 310 311 312 312 312 311 310 309 308 307 305 304 303 301 299 296 293 291 289 288 286 284 282 279 277 274 273 275 278 280 281 279 274 270 265 263 259 256 254 253 252 250 248 246 243 242 242 242 243 243 243 242 241 239 237 236 235 235 236
316 317 315 312 310 311 314 315 316 316 318 319 319 319 319 319 317 312 306 300 296 295 296 299 303 306 309 311 312 313 312 311 310 309 307 307 306 306 305 304 302 299 296 294 292 289 287 285 283 280 276 272 268 267 269 271 274 275 274 273 270 267 264 260 256 254 252 251 250 247 245 243 241 240 241 241 242 242 241 240 238 236 234 233 233 235
316 314 309 304 304 307 311 313 315 318 321 321 321 319 318 315 309 303 297 294 293 294 296 300 304 307 310 311 312 312 311 310 309 309 308 308 308 308 308 307 304 301 298 295 292 289 286 283 281 277 272 266 262 261 264 266 268 268 267 267 266 264 262 259 256 254 252 250 248 246 244 242 241 240 240 241 241 241 240 239 237 235 234 233 233 234
313 307 301 297 299 304 310 314 317 320 321 320 318 314 310 305 299 295 293 293 294 296 299 302 306 309 310 311 311 311 311 311 311 312 312 313 313 313 312 310 307 303 299 295 291 287 283 280 278 274 268 262 258 258 263 266 268 270 270 270 269 268 264 260 256 253 251 249 247 246 244 242 241 240 240 240 240 240 240 238 237 235 234 233 233 233
306 299 294 294 298 305 311 315 318 319 318 314 309 303 298 294 293 293 294 295 298 300 303 305 308 309 310 310 310 312 313 314 314 315 315 316 316 316 315 313 309 305 299 294 288 282 278 276 275 272 267 260 257 258 262 267 273 277 279 279 279 277 273 266 259 253 249 247 246 245 243 242 240 239 238 238 239 239 239 238 237 235 234 234 234 234
299 294 293 295 301 308 313 316 316 314 309 304 298 294 291 291 292 293 295 298 301 304 306 308 308 309 310 311 313 314 315 315 314 314 315 316 317 317 316 315 312 307 301 293 285 278 274 273 273 272 268 263 260 261 265 271 277 282 284 284 284 282 278 271 263 256 250 247 244 243 241 240 238 237 236 236 237 238 238 238 237 236 235 235 235 235
294 293 295 299 305 310 313 311 306 302 298 295 294 293 293 294 296 297 299 302 305 307 308 308 309 309 311 313 315 315 313 310 309 310 313 315 316 317 316 316 314 310 304 295 285 277 273 272 273 273 271 267 265 266 270 275 280 283 285 284 283 281 278 273 267 260 253 247 243 240 239 238 238 237 236 236 236 236 237 237 236 235 234 234 234 235
293 295 300 304 308 309 305 300 296 294 294 294 294 294 296 298 301 302 304 305 306 308 309 310 311 312 313 313 312 310 306 303 304 307 311 314 315 316 316 315 315 313 309 301 290 281 275 274 274 274 274 272 269 269 272 276 280 283 284 283 281 279 276 273 269 263 257 250 244 239 237 237 238 238 238 236 236 235 235 235 234 234 233 233 234 234
298 302 305 307 307 303 298 295 295 295 296 297 298 299 300 302 305 306 307 307 307 309 311 313 313 312 310 308 305 302 299 299 302 306 310 312 314 315 315 315 315 314 312 307 299 290 283 281 280 279 278 277 274 273 273 275 279 281 283 282 280 277 275 273 269 264 259 254 247 242 239 238 237 238 237 236 235 234 233 233 232 232 232 232 233 233
306 308 308 307 304 302 300 301 301 302 303 303 303 303 305 306 308 308 309 309 310 313 315 315 312 307 303 300 298 297 297 299 302 306 309 311 312 313 314 314 314 313 311 308 303 297 291 288 287 286 285 283 281 279 277 278 280 282 283 282 280 277 274 272 268 264 260 255 250 245 242 239 238 237 237 235 234 233 232 231 230 230 230 231 231 232
310 309 306 303 302 302 304 305 306 307 307 307 307 307 308 309 310 311 311 313 315 316 315 310 304 299 298 298 298 298 299 300 303 307 309 310 311 313 314 313 313 312 310 307 304 301 297 295 294 293 292 291 289 288 287 287 287 287 286 284 280 276 272 269 266 263 258 254 250 246 242 239 237 236 236 235 235 234 233 231 230 230 229 230 230 231
305 302 298 297 298 300 303 305 307 307 308 308 309 310 310 311 312 313 315 317 316 312 306 301 297 296 298 301 303 303 303 303 305 308 309 309 311 312 314 313 312 311 310 308 307 306 304 302 301 300 299 299 298 297 295 294 293 292 290 286 281 274 268 265 262 260 256 252 248 244 241 238 237 236 236 236 236 235 234 233 231 230 229 229 229 230
295 292 291 292 294 297 301 303 305 307 308 309 310 311 312 312 313 315 317 315 310 303 299 297 297 298 299 302 305 307 307 307 307 308 309 309 310 312 314 313 313 312 311 311 311 310 309 307 306 304 302 300 297 294 292 293 293 294 292 288 282 274 267 262 260 258 255 252 249 245 242 240 238 237 237 238 237 236 235 233 232 231 230 229 229 229
287 287 288 290 293 297 300 302 305 306 308 310 312 313 313 313 315 316 315 309 302 297 296 297 298 299 300 302 305 308 309 308 308 309 309 309 310 312 313 314 314 313 312 312 311 311 310 309 307 304 300 296 292 290 290 291 292 293 292 289 283 275 266 260 258 256 255 253 251 249 246 244 242 241 241 241 240 239 237 235 233 231 230 229 229 228
285 287 289 292 295 298 300 303 305 308 310 312 313 313 314 316 317 315 309 303 298 296 295 296 298 299 301 303 305 308 309 309 309 309 309 308 309 311 314 315 315 314 312 310 310 310 310 307 303 299 295 293 291 291 291 292 293 293 292 289 283 275 266 259 255 254 254 253 252 251 250 248 247 246 245 244 243 241 239 236 234 232 230 229 228 228
289 291 293 296 298 300 302 305 308 310 313 315 315 314 315 317 314 309 302 297 295 295 296 297 299 301 303 304 305 307 309 309 309 309 309 308 309 311 314 315 313 311 309 308 309 308 305 300 295 292 291 291 292 293 294 295 295 295 293 290 285 277 268 258 253 251 251 251 251 251 251 250 249 248 247 246 244 242 240 237 234 232 230 228 227 227
295 296 298 300 302 304 306 309 312 315 318 317 316 315 314 311 306 300 295 293 294 296 297 299 301 302 303 304 305 307 309 309 309 309 310 309 310 311 313 312 310 308 307 307 306 304 299 295 293 292 292 293 293 295 296 297 297 297 296 294 289 280 269 258 251 248 247 247 248 248 247 247 247 246 246 245 243 241 239 237 234 232 230 228 226 226
301 302 304 306 308 310 312 315 317 319 319 317 313 310 305 299 294 291 290 293 295 298 300 301 302 303 304 305 306 307 308 309 310 310 311 310 310 310 310 310 309 308 307 306 305 302 300 298 298 297 297 297 297 298 299 301 302 303 302 299 292 282 269 258 250 245 242 241 241 242 242 242 243 243 243 243 242 240 238 237 235 233 230 228 227 226
307 308 310 312 314 315 316 316 316 316 314 311 306 301 295 290 288 289 292 296 298 300 302 303 303 304 305 306 307 307 308 310 311 311 311 309 307 307 309 309 309 308 307 306 305 305 304 304 303 302 302 302 303 304 306 308 309 309 308 303 293 280 267 256 247 242 238 237 237 237 238 239 240 240 241 242 241 241 239 238 237 235 233 231 228 227
312 313 315 316 315 314 313 311 310 310 308 306 302 299 296 294 293 295 297 299 301 302 303 303 304 304 306 307 307 307 309 310 311 310 309 306 305 306 307 308 307 306 305 306 307 307 306 306 306 306 306 307 308 310 311 313 313 313 311 305 292 276 262 252 245 240 237 236 236 236 237 238 239 239 240 241 242 241 241 240 239 238 236 235 232 230
313 314 313 312 310 308 307 307 307 307 306 305 304 304 303 302 302 302 302 303 304 304 304 304 304 305 306 306 307 307 309 309 309 307 305 304 304 305 305 305 304 304 305 306 307 307 307 307 306 307 308 309 311 312 314 315 316 315 312 305 292 274 259 249 243 239 237 237 237 237 238 239 240 241 241 242 243 244 243 243 242 241 240 239 237 235
311 309 307 305 304 305 306 307 308 309 308 308 308 308 307 306 305 305 305 306 306 305 305 304 304 305 305 305 306 306 307 306 305 305 304 304 304 303 303 303 304 304 305 306 306 306 306 306 307 307 309 310 312 313 315 317 317 316 313 306 293 274 258 248 243 240 239 238 238 239 240 241 242 243 244 245 246 246 247 246 245 245 244 243 241 239
309 307 306 305 306 307 309 310 311 311 311 310 310 309 308 307 305 305 306 306 306 305 304 304 305 305 305 305 305 304 304 304 304 304 304 304 302 302 302 303 304 304 305 305 305 305 305 306 307 308 309 310 312 314 316 318 318 316 312 305 291 274 259 250 245 242 240 240 240 240 241 242 243 245 246 248 249 249 250 249 249 248 247 246 244 242
313 312 311 310 311 311 312 312 312 312 311 311 311 309 308 306 305 305 306 306 306 305 305 305 305 305 305 305 304 303 303 303 304 304 304 303 302 301 302 303 303 304 305 305 305 304 305 307 308 310 310 311 313 316 318 319 318 316 310 300 286 270 258 250 246 244 243 242 242 242 243 244 245 246 248 249 251 251 252 251 251 250 249 248 246 244
317 316 315 315 315 315 314 314 313 313 312 312 311 310 309 307 306 306 306 307 307 307 307 307 306 306 306 305 305 304 303 304 305 305 305 304 303 302 302 303 303 304 305 306 306 305 305 306 308 308 308 311 314 317 319 319 318 315 308 295 278 263 254 250 247 246 246 246 246 246 247 247 247 248 249 250 251 252 252 252 252 252 251 250 248 245
319 319 319 319 318 317 316 315 314 314 314 314 313 312 311 310 310 309 309 310 310 310 309 308 308 307 307 306 306 305 305 305 307 308 309 307 304 303 303 304 304 305 306 307 307 306 306 306 306 306 308 312 316 319 320 320 319 315 306 290 271 256 250 247 247 248 249 250 251 252 252 252 252 252 252 253 253 253 253 252 252 252 252 251 249 246
321 322 321 321 319 318 317 316 316 316 316 316 316 315 315 314 314 314 314 314 313 312 311 310 309 308 307 306 305 305 305 307 310 312 311 309 306 304 305 305 305 305 305 305 305 305 306 305 305 306 310 315 319 321 322 322 320 315 303 283 262 248 245 245 247 248 250 252 254 255 256 256 256 256 255 254 254 253 252 252 251 251 252 252 250 247
322 322 321 320 319 318 318 318 319 319 319 319 319 319 319 318 318 317 317 316 315 314 312 310 309 309 308 307 306 306 307 310 313 314 313 310 307 306 305 305 305 305 304 303 303 304 304 304 306 309 315 320 322 323 325 325 322 315 299 274 251 241 241 244 246 247 248 250 251 253 255 256 256 254 253 252 251 251 251 251 251 250 250 250 249 247
322 321 320 319 319 319 320 321 322 322 322 322 322 322 322 322 321 320 319 318 317 315 313 311 310 310 309 309 309 309 310 313 315 316 314 310 307 305 305 304 304 304 304 304 305 305 305 305 308 313 318 322 325 327 329 329 326 315 295 264 243 236 238 242 243 243 242 241 242 244 245 246 245 245 244 244 245 248 251 252 251 250 248 247 246 244
321 320 320 321 322 323 324 325 325 326 325 325 325 325 325 324 324 323 321 320 318 316 314 312 311 311 311 311 311 311 312 315 317 317 313 309 306 305 304 304 304 305 305 306 307 307 306 307 310 314 319 322 326 332 337 335 328 313 285 249 236 234 236 238 236 233 229 228 229 230 231 232 231 230 229 230 233 239 247 252 253 250 246 241 237 235
321 322 323 325 326 327 328 328 328 328 328 328 328 328 328 327 326 325 323 321 319 317 316 314 314 313 312 312 312 312 314 317 318 317 313 309 306 305 305 305 306 307 308 308 308 307 307 308 312 316 319 322 328 336 346 344 329 298 261 236 229 228 229 227 222 219 218 219 221 223 224 224 223 221 220 222 227 235 246 256 257 250 241 232 226 222
324 326 328 329 330 331 331 331 331 331 331 331 332 331 331 330 328 326 325 323 322 320 319 318 317 316 315 314 314 314 315 317 318 317 314 310 307 306 307 308 309 310 310 309 308 307 307 309 313 318 321 325 330 339 353 359 339 260 236 222 217 215 214 210 209 211 213 216 218 218 216 212 208 206 211 229 247 257 261 269 269 256 239 224 214 209
328 330 331 333 333 333 333 333 333 334 334 335 335 335 334 332 330 329 327 326 325 324 323 321 321 320 319 318 317 316 317 318 319 318 317 314 313 312 311 310 310 310 308 307 306 306 307 310 315 319 323 327 334 343 353 2 27 196 208 210 208 202 198 198 203 209 213 214 211 204 189 162 119 71 36 8 330 278 246 241 256 258 241 219 205 198
331 333 334 335 335 335 335 335 336 337 337 337 338 337 336 334 333 331 330 329 328 327 326 324 323 322 322 321 320 319 320 320 321 321 320 319 318 316 313 311 309 307 305 304 304 305 307 311 315 319 323 328 337 350 3 6 144 184 196 203 201 191 187 192 201 208 212 207 194 169 130 89 59 37 20 8 265 197 177 162 156 173 218 212 201 192
334 335 336 337 337 337 337 338 339 339 340 340 340 339 338 336 335 334 333 332 331 329 328 326 325 324 324 324 323 323 323 324 325 324 323 321 319 315 312 309 307 306 305 304 304 305 306 310 314 318 321 326 335 351 20 51 155 176 187 198 196 187 180 188 199 207 207 194 169 133 96 66 42 24 11 359 229 195 185 173 162 157 165 182 189 188
336 337 337 338 339 339 340 341 341 342 342 342 342 341 340 337 336 335 335 334 333 332 330 328 327 327 326 326 327 328 329 330 330 328 324 320 317 313 310 309 307 306 305 304 304 304 307 310 313 316 320 326 334 352 25 97 156 173 182 191 190 182 176 184 195 203 201 179 137 100 71 49 31 18 7 358 239 198 196 191 182 172 168 167 171 175
337 337 338 339 341 342 343 343 343 343 343 343 343 342 340 338 336 335 335 335 335 334 333 331 330 330 329 331 334 336 338 336 333 328 323 318 315 313 311 309 307 305 304 304 305 307 309 311 313 315 320 327 338 358 50 136 164 176 182 187 184 177 174 181 193 198 191 148 99 73 54 38 25 16 10 7 288 202 200 198 195 187 178 172 169 168
338 339 340 341 342 343 344 344 344 344 344 344 344 342 340 338 336 335 335 335 335 335 335 334 333 333 334 338 343 345 344 339 333 327 322 319 317 316 313 310 308 307 307 308 309 310 312 312 313 315 321 329 345 18 97 148 167 177 181 181 176 173 175 181 190 190 162 105 77 60 47 36 26 19 16 18 23 197 198 197 195 190 184 176 171 168
339 340 341 342 343 344 344 345 345 345 344 344 343 342 341 338 336 335 335 335 336 336 336 336 336 338 341 345 347 347 345 340 334 328 326 325 323 320 317 314 313 313 313 313 313 314 315 315 316 318 323 331 351 61 131 156 169 178 180 176 170 168 171 177 181 171 127 90 71 57 46 37 28 23 21 25 40 118 174 185 188 186 181 175 170 167
340 341 342 343 343 344 344 344 344 344 344 344 343 342 341 339 337 336 335 336 337 337 338 339 341 344 347 350 349 347 344 341 338 336 335 333 331 327 324 321 320 318 317 317 317 317 318 319 321 323 327 336 4 117 144 160 171 178 178 173 168 166 168 173 172 150 113 87 70 57 45 37 28 22 19 20 29 58 118 150 164 172 174 171 168 166
341 342 342 343 343 343 344 344 344 343 343 343 342 342 340 339 338 337 337 337 338 339 341 343 346 349 351 351 349 347 345 344 344 344 343 341 338 334 331 328 325 323 321 320 320 321 322 323 324 326 332 347 89 146 156 164 172 177 178 174 168 166 167 170 164 139 109 87 72 58 47 37 29 21 15 15 21 38 78 119 142 154 163 165 165 163
342 342 342 342 342 343 343 343 343 343 342 342 342 342 341 340 339 339 339 339 340 341 344 347 351 353 354 352 350 348 347 348 349 349 348 346 344 341 337 334 330 327 324 323 322 323 324 325 327 330 339 13 125 151 161 166 171 175 178 175 170 167 166 165 156 133 109 89 75 64 53 43 33 25 18 16 20 31 54 83 112 133 145 152 155 157
342 342 342 342 342 342 343 343 343 342 342 342 342 343 343 342 341 340 340 341 342 344 347 350 354 356 356 354 352 350 350 350 351 351 350 349 348 346 343 340 335 330 327 325 324 323 323 325 327 332 351 99 137 152 161 166 170 173 176 174 171 167 164 160 149 129 108 91 79 71 63 54 47 41 35 28 26 31 44 60 77 92 106 120 133 140
342 342 342 342 342 342 343 343 343 342 342 343 344 345 346 345 343 342 342 343 344 347 350 353 356 357 357 356 354 353 353 353 353 353 352 352 351 351 349 346 341 336 331 327 324 324 324 326 329 336 92 137 144 152 159 164 168 171 174 173 171 166 160 153 141 123 105 91 82 75 70 67 65 62 57 51 45 43 47 56 65 72 76 82 91 102
343 343 342 342 342 342 343 343 343 344 344 345 347 348 349 348 347 345 344 345 347 350 354 356 358 358 357 357 356 356 355 356 356 355 355 355 355 355 354 353 350 346 341 335 332 329 328 331 338 30 135 143 146 150 155 161 165 169 172 173 170 164 155 145 133 119 104 92 83 78 75 75 77 77 74 71 66 62 61 63 68 72 73 74 79 88
344 344 344 343 343 343 343 344 345 346 347 349 350 351 351 351 350 349 348 349 351 354 358 360 0 360 358 358 358 358 358 358 358 359 359 359 360 0 0 0 359 358 355 352 347 345 343 346 14 112 133 141 146 149 152 156 161 166 169 169 166 159 149 138 128 117 105 95 87 82 81 82 85 87 87 84 82 79 76 73 74 75 75 77 85 98
Height
2863 2861 2858 2857 2855 2852 2849 2848 2847 2844 2841 2840 2839 2838 2836 2834 2832 2831 2830 2828 2826 2824 2822 2820 2818 2817 2815 2814 2813 2813 2812 2811 2810 2808 2808 2806 2805 2804 2803 2802 2801 2800 2799 2798 2796 2795 2794 2794 2793 2792 2791 2791 2790 2789 2788 2787 2787 2787 2787 2787 2787 2787 2788 2789 2790 2792 2793 2795 2797 2798 2800 2801 2803 2804 2805 2806 2808 2809 2810 2811 2813 2815 2818 2819 2821 2823
2859 2856 2854 2853 2851 2848 2845 2843 2843 2842 2838 2836 2835 2834 2833 2830 2828 2827 2825 2824 2822 2820 2818 2816 2814 2813 2812 2810 2810 2809 2808 2807 2805 2804 2803 2802 2801 2800 2799 2798 2797 2796 2795 2794 2793 2791 2790 2789 2789 2788 2788 2787 2786 2785 2783 2783 2782 2782 2782 2782 2782 2783 2783 2784 2786 2787 2788 2789 2791 2793 2794 2795 2797 2798 2799 2801 2803 2804 2805 2807 2809 2811 2813 2815 2817 2818
2855 2852 2850 2848 2847 2845 2843 2840 2839 2838 2836 2833 2832 2830 2829 2827 2824 2823 2821 2819 2817 2815 2813 2812 2811 2809 2808 2807 2806 2805 2804 2803 2801 2800 2799 2798 2797 2796 2795 2793 2793 2791 2790 2789 2788 2787 2786 2785 2784 2784 2785 2783 2782 2780 2779 2779 2778 2778 2778 2778 2778 2779 2780 2781 2782 2782 2783 2784 2785 2787 2788 2789 2791 2793 2794 2796 2797 2799 2801 2803 2805 2807 2809 2811 2813 2815
2852 2849 2846 2844 2843 2841 2840 2838 2836 2834 2833 2831 2828 2827 2825 2823 2820 2818 2816 2814 2813 2811 2810 2809 2808 2806 2805 2804 2803 2802 2800 2799 2797 2796 2795 2793 2793 2791 2790 2789 2788 2787 2786 2785 2784 2783 2782 2781 2780 2780 2780 2779 2778 2777 2776 2775 2775 2774 2774 2775 2776 2777 2777 2778 2778 2779 2779 2780 2781 2782 2783 2784 2786 2787 2789 2791 2793 2794 2797 2798 2800 2802 2804 2806 2808 2811
2848 2846 2843 2841 2838 2837 2835 2835 2833 2831 2829 2827 2825 2823 2821 2818 2816 2814 2812 2811 2810 2809 2808 2806 2805 2803 2802 2800 2799 2798 2796 2795 2793 2792 2791 2789 2788 2787 2786 2785 2783 2783 2782 2781 2780 2779 2778 2777 2776 2775 2775 2774 2774 2773 2773 2772 2772 2772 2772 2773 2774 2775 2775 2775 2775 2775 2776 2776 2777 2778 2779 2780 2781 2782 2784 2786 2788 2790 2792 2794 2796 2798 2799 2802 2804 2807
2845 2843 2840 2838 2836 2833 2832 2830 2829 2828 2825 2823 2821 2819 2817 2815 2813 2811 2809 2809 2808 2806 2805 2803 2802 2800 2799 2797 2795 2793 2792 2790 2789 2788 2787 2785 2784 2783 2782 2780 2779 2778 2777 2776 2775 2774 2773 2773 2772 2771 2771 2771 2771 2770 2770 2770 2770 2770 2770 2771 2771 2771 2771 2771 2771 2771 2772 2772 2773 2774 2775 2775 2776 2778 2779 2781 2783 2786 2788 2789 2791 2793 2795 2797 2800 2803
2841 2839 2838 2836 2833 2831 2830 2828 2827 2825 2823 2819 2816 2814 2813 2812 2810 2809 2808 2807 2805 2803 2801 2800 2798 2797 2796 2793 2792 2790 2788 2787 2785 2784 2783 2782 2780 2779 2778 2776 2774 2773 2772 2771 2770 2769 2769 2768 2768 2768 2767 2767 2767 2768 2768 2768 2768 2768 2768 2768 2767 2767 2767 2766 2766 2767 2768 2768 2768 2769 2770 2771 2772 2773 2775 2777 2779 2781 2783 2785 2787 2789 2791 2793 2796 2798
2838 2836 2837 2835 2832 2828 2827 2826 2825 2823 2820 2817 2814 2811 2810 2809 2808 2808 2806 2804 2802 2800 2798 2796 2795 2793 2792 2790 2788 2786 2785 2783 2781 2779 2778 2777 2776 2775 2773 2772 2771 2769 2768 2767 2766 2765 2765 2765 2764 2764 2764 2764 2764 2764 2765 2765 2765 2764 2763 2763 2762 2762 2762 2762 2762 2763 2763 2763 2763 2764 2765 2766 2768 2769 2771 2773 2775 2777 2778 2780 2782 2784 2787 2789 2791 2794
2838 2836 2835 2833 2830 2828 2824 2821 2820 2820 2818 2816 2814 2812 2811 2808 2806 2803 2802 2800 2799 2798 2796 2793 2791 2789 2788 2787 2785 2783 2781 2779 2777 2775 2773 2772 2771 2770 2769 2768 2767 2765 2764 2763 2762 2762 2761 2761 2761 2761 2761 2761 2761 2761 2761 2761 2761 2760 2759 2759 2758 2758 2758 2758 2758 2758 2759 2759 2759 2760 2761 2763 2764 2765 2768 2769 2771 2772 2773 2775 2778 2780 2782 2784 2787 2790
2838 2836 2832 2829 2828 2827 2824 2818 2816 2816 2816 2815 2814 2812 2810 2806 2802 2799 2797 2795 2794 2794 2793 2791 2788 2785 2783 2782 2781 2779 2776 2774 2772 2771 2770 2769 2768 2767 2766 2764 2763 2761 2760 2759 2758 2758 2758 2758 2758 2758 2758 2758 2758 2758 2758 2758 2757 2756 2755 2755 2755 2754 2754 2753 2753 2754 2754 2755 2756 2757 2758 2759 2760 2761 2763 2764 2765 2766 2768 2770 2773 2775 2778 2780 2783 2785
2836 2833 2830 2827 2825 2823 2821 2818 2815 2814 2814 2813 2810 2808 2806 2804 2801 2797 2793 2790 2789 2789 2788 2787 2785 2783 2779 2777 2775 2774 2772 2770 2768 2767 2766 2766 2765 2764 2762 2761 2759 2758 2757 2756 2755 2755 2755 2755 2755 2755 2755 2755 2755 2755 2754 2754 2753 2753 2752 2752 2752 2751 2751 2750 2750 2751 2751 2752 2753 2753 2754 2755 2756 2757 2758 2759 2760 2762 2764 2766 2768 2771 2773 2776 2778 2781
2833 2829 2827 2825 2822 2820 2818 2817 2815 2813 2811 2808 2805 2803 2801 2800 2798 2796 2791 2787 2785 2784 2783 2782 2781 2779 2777 2774 2772 2770 2769 2768 2766 2763 2763 2762 2761 2760 2759 2757 2756 2755 2754 2753 2753 2753 2753 2753 2753 2753 2753 2753 2752 2752 2751 2751 2750 2750 2749 2749 2749 2748 2748 2748 2748 2748 2748 2749 2749 2750 2751 2752 2753 2753 2754 2755 2757 2758 2760 2762 2764 2767 2769 2772 2774 2777
2830 2827 2824 2822 2819 2818 2817 2814 2811 2808 2806 2804 2802 2799 2796 2794 2793 2792 2788 2785 2783 2781 2779 2777 2775 2774 2773 2772 2770 2769 2768 2765 2763 2761 2760 2759 2758 2757 2755 2753 2752 2752 2751 2750 2750 2750 2750 2750 2750 2750 2750 2750 2750 2749 2749 2748 2748 2747 2747 2746 2746 2745 2745 2744 2744 2745 2745 2746 2746 2747 2748 2749 2750 2751 2752 2752 2753 2755 2756 2758 2760 2763 2765 2768 2770 2773
2826 2823 2821 2818 2817 2815 2813 2811 2808 2805 2803 2801 2799 2796 2793 2791 2789 2788 2785 2782 2780 2778 2777 2774 2771 2770 2769 2769 2769 2768 2765 2762 2760 2758 2757 2757 2756 2754 2753 2751 2749 2749 2748 2748 2747 2747 2748 2748 2747 2747 2747 2747 2747 2747 2746 2745 2745 2744 2744 2743 2743 2742 2742 2742 2742 2742 2743 2744 2744 2744 2745 2745 2746 2746 2747 2747 2748 2750 2752 2753 2756 2758 2761 2764 2767 2769
2822 2819 2816 2814 2812 2810 2808 2807 2804 2801 2799 2797 2795 2792 2790 2788 2786 2784 2782 2778 2776 2774 2773 2771 2769 2768 2767 2767 2766 2765 2763 2760 2757 2755 2754 2753 2753 2752 2750 2748 2747 2746 2746 2745 2744 2744 2745 2744 2744 2743 2743 2743 2743 2743 2743 2742 2742 2742 2741 2740 2740 2739 2739 2739 2739 2739 2739 2740 2741 2742 2742 2741 2741 2741 2742 2743 2744 2746 2748 2750 2752 2754 2758 2760 2763 2765
2818 2817 2814 2811 2808 2805 2804 2803 2800 2797 2795 2793 2791 2789 2787 2784 2783 2781 2779 2776 2773 2772 2771 2770 2768 2765 2763 2763 2763 2763 2761 2758 2755 2753 2751 2749 2749 2749 2748 2746 2744 2743 2743 2743 2742 2742 2741 2741 2741 2740 2740 2740 2740 2740 2739 2739 2739 2738 2738 2737 2736 2736 2736 2736 2736 2735 2735 2736 2736 2736 2736 2736 2737 2737 2738 2739 2741 2742 2744 2746 2748 2751 2753 2756 2759 2761
2818 2816 2812 2808 2804 2802 2800 2799 2797 2794 2792 2789 2788 2786 2784 2782 2780 2778 2776 2773 2772 2772 2771 2768 2765 2761 2758 2757 2758 2760 2759 2755 2752 2749 2748 2745 2745 2746 2746 2744 2742 2740 2740 2740 2739 2739 2738 2738 2738 2737 2737 2737 2736 2736 2736 2736 2735 2735 2734 2734 2733 2733 2733 2733 2732 2731 2730 2730 2730 2730 2731 2732 2733 2734 2735 2736 2738 2739 2741 2743 2745 2747 2750 2752 2755 2758
2816 2812 2808 2805 2802 2799 2797 2795 2793 2791 2789 2787 2785 2783 2781 2779 2778 2775 2773 2773 2773 2771 2767 2765 2762 2760 2757 2753 2753 2754 2756 2753 2749 2746 2744 2742 2741 2742 2743 2741 2739 2738 2737 2737 2737 2736 2736 2735 2735 2734 2734 2734 2734 2734 2733 2733 2732 2732 2731 2730 2730 2729 2729 2728 2727 2727 2726 2726 2727 2727 2728 2728 2729 2731 2732 2734 2735 2736 2738 2739 2741 2743 2746 2748 2751 2754
2810 2807 2805 2802 2799 2797 2794 2793 2791 2789 2787 2784 2782 2780 2778 2776 2775 2774 2773 2773 2770 2767 2764 2762 2759 2757 2755 2752 2750 2751 2752 2750 2747 2744 2741 2738 2738 2738 2739 2738 2736 2735 2734 2734 2734 2733 2733 2732 2732 2732 2732 2732 2731 2731 2730 2730 2729 2728 2727 2727 2726 2726 2725 2724 2723 2723 2723 2723 2724 2724 2725 2726 2728 2729 2730 2731 2733 2733 2735 2736 2738 2740 2743 2745 2748 2750
2805 2803 2802 2800 2797 2794 2791 2790 2788 2787 2784 2782 2780 2778 2776 2773 2773 2772 2771 2769 2766 2763 2761 2759 2757 2754 2753 2750 2748 2748 2749 2748 2745 2742 2738 2736 2735 2735 2735 2735 2733 2732 2731 2731 2731 2731 2730 2730 2730 2730 2729 2728 2728 2728 2727 2726 2725 2724 2723 2723 2722 2721 2720 2720 2720 2720 2720 2720 2721 2722 2723 2724 2725 2726 2727 2728 2729 2731 2732 2733 2735 2737 2739 2741 2744 2746
2802 2800 2799 2798 2795 2792 2788 2786 2785 2783 2782 2780 2778 2776 2773 2772 2772 2771 2768 2765 2762 2760 2758 2756 2754 2752 2750 2748 2746 2746 2746 2745 2743 2739 2736 2733 2731 2731 2732 2732 2731 2729 2728 2728 2727 2727 2728 2727 2726 2725 2725 2724 2724 2723 2723 2722 2721 2720 2719 2718 2717 2716 2716 2715 2716 2716 2717 2718 2718 2719 2720 2721 2722 2723 2723 2724 2726 2727 2728 2730 2731 2733 2735 2738 2740 2742
2799 2796 2795 2794 2792 2789 2786 2783 2781 2780 2779 2778 2776 2774 2773 2773 2771 2768 2764 2761 2759 2757 2755 2753 2751 2749 2748 2746 2744 2743 2744 2743 2741 2738 2734 2730 2728 2727 2729 2730 2728 2727 2725 2724 2725 2725 2724 2723 2722 2721 2721 2721 2720 2719 2719 2718 2717 2716 2715 2714 2713 2712 2711 2711 2711 2712 2713 2714 2715 2716 2716 2717 2717 2718 2719 2720 2721 2722 2723 2725 2727 2729 2731 2733 2736 2738
2796 2793 2791 2790 2788 2785 2783 2780 2778 2777 2777 2776 2775 2774 2773 2772 2769 2764 2760 2758 2756 2754 2752 2749 2747 2746 2744 2743 2742 2741 2741 2740 2738 2736 2734 2730 2727 2726 2727 2727 2725 2723 2722 2721 2721 2720 2720 2719 2718 2718 2717 2716 2716 2715 2714 2714 2713 2712 2711 2709 2708 2708 2707 2707 2707 2708 2708 2709 2710 2711 2711 2711 2712 2713 2714 2715 2716 2718 2719 2721 2723 2725 2727 2729 2731 2733
2793 2790 2788 2786 2784 2782 2780 2778 2778 2777 2776 2774 2773 2772 2770 2768 2764 2761 2758 2756 2754 2751 2749 2746 2744 2742 2741 2740 2739 2738 2737 2737 2736 2734 2732 2729 2725 2723 2723 2723 2722 2720 2719 2718 2718 2717 2716 2715 2714 2713 2712 2711 2711 2710 2710 2709 2708 2707 2706 2705 2704 2703 2703 2703 2703 2703 2703 2704 2705 2705 2705 2706 2708 2709 2711 2712 2713 2714 2716 2718 2719 2722 2723 2725 2728 2730
2789 2787 2785 2783 2782 2781 2780 2779 2778 2776 2774 2772 2769 2767 2765 2763 2761 2758 2756 2754 2752 2749 2746 2744 2741 2739 2738 2737 2736 2735 2734 2734 2733 2732 2731 2727 2723 2721 2721 2721 2720 2718 2715 2714 2714 2713 2712 2711 2710 2709 2708 2707 2706 2705 2705 2705 2704 2703 2703 2702 2701 2700 2699 2699 2699 2699 2699 2699 2700 2700 2702 2703 2705 2706 2707 2708 2710 2711 2713 2714 2716 2718 2720 2722 2724 2726
2787 2786 2784 2783 2781 2780 2779 2777 2775 2773 2771 2769 2767 2764 2762 2760 2757 2754 2753 2751 2749 2747 2744 2741 2738 2737 2736 2734 2733 2732 2731 2731 2731 2730 2728 2725 2721 2718 2718 2718 2717 2715 2712 2711 2710 2710 2708 2707 2706 2705 2704 2703 2702 2702 2702 2701 2700 2700 2699 2698 2698 2697 2696 2696 2696 2696 2696 2696 2697 2698 2699 2700 2702 2703 2704 2705 2707 2708 2710 2711 2713 2715 2717 2719 2721 2723
2785 2783 2782 2780 2778 2776 2775 2773 2771 2770 2768 2767 2765 2763 2760 2757 2754 2751 2749 2748 2747 2744 2742 2739 2736 2734 2733 2732 2731 2730 2729 2729 2728 2727 2725 2723 2720 2717 2715 2715 2714 2712 2709 2708 2707 2706 2705 2703 2702 2702 2701 2700 2699 2699 2698 2698 2697 2697 2696 2695 2694 2694 2693 2693 2693 2693 2693 2693 2694 2695 2696 2698 2699 2700 2701 2703 2704 2705 2707 2708 2710 2712 2713 2715 2717 2718
2781 2779 2778 2776 2774 2773 2772 2770 2769 2767 2766 2765 2763 2761 2758 2755 2752 2749 2747 2746 2744 2742 2739 2737 2734 2732 2730 2729 2728 2728 2727 2726 2725 2724 2723 2721 2718 2715 2713 2712 2711 2710 2708 2705 2703 2703 2702 2701 2699 2698 2698 2697 2697 2696 2695 2695 2694 2693 2693 2692 2692 2691 2690 2690 2690 2690 2690 2691 2692 2693 2693 2695 2696 2698 2699 2700 2701 2703 2704 2706 2707 2709 2710 2711 2712 2713
2778 2777 2775 2774 2772 2771 2769 2768 2766 2765 2764 2762 2760 2758 2756 2753 2751 2748 2745 2743 2742 2740 2737 2735 2733 2731 2728 2726 2725 2724 2724 2723 2723 2722 2720 2718 2715 2713 2711 2710 2709 2708 2706 2703 2700 2698 2698 2698 2697 2696 2695 2694 2694 2694 2693 2692 2692 2691 2690 2690 2689 2688 2688 2688 2688 2688 2688 2688 2689 2690 2691 2693 2694 2695 2696 2698 2699 2700 2702 2703 2704 2706 2706 2707 2708 2709
2775 2774 2773 2771 2770 2768 2767 2765 2764 2763 2761 2759 2758 2756 2753 2751 2748 2746 2743 2742 2740 2738 2735 2733 2731 2729 2727 2724 2722 2720 2720 2720 2720 2720 2718 2716 2713 2710 2709 2708 2706 2705 2704 2702 2698 2694 2693 2694 2694 2694 2693 2693 2692 2692 2691 2690 2689 2688 2688 2687 2686 2686 2686 2686 2686 2686 2686 2687 2688 2688 2689 2691 2692 2693 2694 2695 2697 2698 2699 2700 2702 2703 2703 2703 2705 2706
2773 2771 2770 2768 2767 2766 2764 2763 2761 2759 2758 2756 2754 2753 2750 2748 2746 2743 2741 2739 2738 2736 2733 2731 2728 2727 2725 2723 2721 2718 2716 2716 2718 2718 2716 2713 2710 2708 2706 2705 2703 2703 2703 2702 2699 2694 2689 2689 2690 2691 2691 2691 2690 2690 2689 2688 2687 2686 2685 2684 2684 2684 2684 2684 2684 2684 2685 2685 2686 2687 2688 2689 2690 2691 2692 2693 2694 2695 2697 2698 2699 2699 2700 2700 2701 2703
2770 2769 2767 2766 2765 2763 2762 2760 2758 2756 2754 2752 2751 2749 2747 2745 2743 2741 2739 2737 2735 2733 2731 2729 2726 2724 2723 2722 2720 2717 2714 2714 2715 2715 2714 2711 2708 2705 2704 2703 2701 2700 2700 2700 2699 2696 2691 2687 2686 2687 2688 2689 2688 2687 2687 2686 2685 2684 2683 2683 2682 2682 2683 2683 2683 2683 2684 2684 2685 2686 2687 2688 2688 2689 2690 2691 2692 2693 2694 2695 2696 2697 2697 2698 2698 2700
2768 2767 2765 2764 2762 2761 2759 2757 2755 2753 2751 2749 2747 2745 2744 2742 2740 2738 2737 2735 2733 2732 2729 2727 2724 2722 2720 2719 2717 2715 2714 2713 2713 2713 2712 2709 2706 2703 2702 2701 2700 2698 2697 2697 2696 2695 2693 2688 2685 2684 2686 2686 2686 2685 2684 2684 2683 2682 2681 2681 2681 2681 2681 2681 2681 2682 2683 2683 2684 2685 2686 2686 2687 2688 2688 2689 2690 2691 2692 2693 2693 2694 2695 2695 2696 2698
2767 2765 2763 2762 2760 2758 2756 2754 2752 2750 2748 2746 2744 2743 2741 2739 2738 2736 2734 2733 2731 2730 2728 2726 2723 2721 2718 2716 2714 2713 2712 2712 2712 2712 2710 2708 2705 2702 2700 2699 2698 2697 2695 2694 2693 2692 2690 2688 2686 2684 2684 2684 2684 2684 2683 2682 2681 2681 2680 2680 2680 2680 2680 2680 2681 2681 2682 2683 2683 2683 2684 2685 2685 2686 2687 2688 2688 2689 2689 2690 2691 2692 2693 2693 2694 2696
2764 2763 2761 2759 2757 2755 2753 2751 2749 2747 2746 2744 2742 2740 2739 2737 2735 2734 2732 2731 2729 2728 2726 2724 2723 2721 2718 2716 2713 2711 2710 2710 2710 2710 2708 2707 2704 2701 2699 2698 2697 2696 2694 2692 2691 2690 2688 2686 2685 2685 2683 2682 2682 2682 2682 2681 2680 2679 2679 2679 2679 2679 2679 2679 2680 2680 2681 2681 2682 2682 2683 2683 2684 2684 2685 2686 2687 2687 2688 2689 2690 2691 2691 2692 2693 2694
2762 2760 2758 2757 2754 2752 2750 2748 2747 2745 2743 2742 2740 2738 2737 2735 2733 2732 2730 2729 2728 2726 2724 2723 2721 2720 2718 2716 2713 2711 2709 2708 2708 2708 2707 2705 2703 2701 2698 2696 2695 2694 2693 2691 2689 2688 2686 2684 2684 2684 2683 2681 2680 2680 2680 2680 2679 2679 2679 2678 2678 2678 2679 2679 2680 2680 2680 2680 2680 2681 2682 2682 2683 2684 2684 2685 2687 2688 2689 2690 2690 2691 2691 2691 2692 2693
2760 2758 2756 2754 2752 2750 2748 2747 2745 2743 2741 2739 2738 2736 2735 2733 2732 2730 2729 2727 2726 2724 2723 2721 2720 2718 2717 2715 2713 2711 2708 2707 2707 2706 2705 2703 2702 2700 2698 2695 2694 2693 2693 2690 2688 2686 2685 2684 2683 2683 2682 2681 2680 2679 2678 2678 2679 2678 2678 2678 2678 2678 2679 2679 2679 2679 2679 2679 2680 2680 2681 2682 2683 2684 2685 2687 2688 2688 2689 2690 2690 2690 2690 2691 2692 2693
2758 2756 2754 2752 2750 2748 2747 2745 2743 2741 2739 2738 2736 2735 2733 2732 2730 2728 2727 2725 2724 2723 2721 2719 2718 2717 2715 2714 2712 2710 2708 2707 2705 2704 2703 2702 2700 2699 2697 2694 2693 2693 2692 2690 2688 2686 2684 2683 2682 2681 2680 2679 2679 2679 2678 2678 2678 2678 2678 2678 2678 2678 2679 2679 2679 2679 2679 2679 2680 2681 2682 2683 2683 2684 2685 2686 2687 2687 2687 2688 2689 2690 2690 2691 2692 2693
2756 2754 2753 2751 2749 2747 2745 2743 2742 2740 2738 2737 2735 2733 2732 2730 2729 2727 2726 2724 2723 2721 2719 2718 2716 2715 2713 2712 2711 2709 2708 2706 2704 2703 2701 2700 2698 2697 2696 2694 2692 2691 2690 2688 2687 2685 2684 2683 2682 2681 2679 2678 2678 2678 2678 2678 2678 2678 2678 2678 2678 2679 2679 2679 2679 2679 2679 2680 2681 2681 2682 2683 2683 2684 2685 2685 2685 2685 2686 2686 2688 2689 2690 2691 2692 2693
2755 2753 2751 2750 2748 2746 2744 2742 2740 2739 2737 2735 2734 2732 2731 2729 2728 2726 2725 2723 2722 2720 2718 2716 2715 2713 2712 2711 2709 2708 2706 2704 2703 2701 2699 2698 2697 2696 2694 2693 2691 2689 2688 2687 2686 2685 2684 2682 2681 2680 2679 2678 2678 2677 2678 2678 2678 2678 2678 2678 2678 2679 2679 2680 2679 2679 2680 2681 2681 2682 2682 2683 2683 2684 2685 2685 2685 2685 2686 2686 2687 2688 2689 2690 2692 2693
2753 2752 2750 2748 2747 2745 2743 2742 2740 2738 2736 2734 2733 2731 2730 2728 2726 2724 2723 2722 2720 2718 2717 2715 2713 2712 2711 2710 2708 2706 2704 2702 2701 2699 2698 2697 2695 2694 2692 2691 2689 2688 2687 2686 2684 2683 2682 2681 2680 2679 2679 2678 2678 2678 2678 2678 2678 2678 2678 2678 2679 2679 2680 2680 2680 2680 2681 2681 2682 2682 2683 2683 2683 2684 2684 2684 2685 2685 2686 2686 2687 2687 2688 2690 2691 2693
2753 2751 2749 2748 2746 2744 2742 2741 2739 2738 2736 2734 2732 2731 2729 2727 2725 2723 2721 2720 2718 2717 2715 2713 2712 2710 2709 2708 2706 2704 2703 2701 2699 2698 2697 2695 2694 2692 2691 2690 2688 2687 2685 2684 2683 2682 2682 2681 2680 2679 2678 2678 2678 2677 2677 2678 2678 2678 2678 2679 2679 2679 2680 2680 2681 2681 2681 2682 2682 2683 2683 2683 2683 2684 2684 2684 2684 2685 2685 2686 2687 2688 2688 2689 2691 2692
2752 2750 2748 2747 2745 2743 2742 2740 2738 2737 2735 2733 2732 2730 2728 2726 2724 2722 2720 2718 2717 2715 2714 2712 2710 2709 2707 2705 2703 2702 2701 2700 2698 2697 2695 2694 2692 2691 2690 2688 2686 2684 2683 2682 2681 2681 2680 2680 2679 2678 2678 2678 2677 2677 2677 2678 2678 2678 2679 2679 2680 2680 2681 2681 2681 2682 2682 2683 2683 2683 2683 2683 2684 2684 2684 2684 2684 2684 2685 2686 2687 2688 2688 2689 2690 2692
2751 2749 2748 2746 2744 2743 2741 2739 2738 2736 2734 2733 2731 2729 2728 2726 2724 2722 2720 2718 2716 2714 2713 2711 2709 2707 2705 2703 2701 2700 2699 2698 2698 2696 2694 2693 2691 2690 2688 2686 2685 2683 2682 2681 2680 2679 2679 2679 2678 2678 2677 2677 2677 2677 2677 2678 2678 2678 2679 2680 2680 2681 2681 2682 2682 2683 2683 2683 2684 2684 2684 2684 2684 2684 2684 2684 2684 2684 2685 2686 2687 2688 2688 2689 2690 2692
2751 2749 2747 2745 2744 2742 2740 2738 2737 2735 2733 2732 2730 2728 2727 2725 2723 2721 2719 2717 2715 2713 2712 2710 2708 2706 2703 2702 2700 2699 2698 2697 2696 2694 2693 2691 2690 2688 2687 2685 2683 2682 2681 2680 2680 2679 2678 2678 2678 2677 2677 2677 2677 2677 2678 2678 2678 2679 2679 2680 2681 2682 2682 2683 2683 2684 2684 2684 2685 2684 2684 2685 2685 2685 2685 2685 2684 2684 2685 2686 2687 2688 2688 2689 2690 2692
2750 2748 2746 2745 2743 2741 2740 2738 2736 2734 2733 2731 2729 2728 2726 2724 2722 2720 2718 2716 2714 2713 2711 2709 2707 2705 2703 2701 2700 2698 2697 2696 2694 2693 2691 2690 2688 2687 2686 2684 2683 2681 2680 2679 2679 2678 2678 2677 2677 2677 2677 2677 2677 2677 2678 2678 2678 2679 2680 2681 2682 2682 2683 2684 2684 2685 2685 2686 2686 2686 2686 2686 2686 2686 2686 2686 2685 2685 2685 2686 2687 2688 2688 2689 2690 2692
2749 2748 2746 2744 2742 2741 2739 2737 2735 2733 2732 2730 2728 2727 2725 2723 2721 2719 2717 2715 2714 2712 2710 2708 2707 2705 2703 2701 2699 2698 2696 2694 2693 2692 2690 2689 2688 2686 2685 2684 2682 2681 2680 2679 2678 2678 2677 2677 2677 2677 2677 2677 2677 2677 2678 2678 2679 2680 2681 2681 2682 2683 2684 2685 2686 2686 2687 2687 2687 2687 2687 2687 2688 2688 2688 2687 2686 2686 2686 2686 2687 2688 2688 2689 2690 2691
2749 2747 2745 2743 2742 2740 2738 2736 2734 2733 2731 2729 2727 2726 2724 2722 2720 2718 2716 2715 2713 2711 2710 2708 2706 2704 2703 2701 2700 2698 2696 2694 2693 2691 2690 2688 2687 2686 2684 2683 2682 2680 2679 2678 2678 2677 2677 2677 2676 2676 2677 2677 2677 2678 2678 2678 2679 2680 2681 2682 2683 2683 2685 2686 2687 2687 2688 2688 2688 2688 2688 2689 2689 2690 2690 2689 2688 2687 2687 2687 2688 2688 2689 2690 2691 2692
2749 2747 2745 2743 2741 2739 2737 2735 2733 2732 2730 2728 2726 2725 2723 2722 2720 2718 2716 2714 2713 2711 2709 2707 2705 2703 2702 2701 2699 2698 2697 2695 2693 2691 2690 2688 2687 2685 2684 2683 2681 2680 2679 2678 2678 2677 2677 2676 2676 2676 2677 2677 2678 2678 2678 2679 2680 2681 2682 2683 2684 2685 2686 2687 2688 2689 2689 2689 2689 2690 2690 2690 2691 2691 2691 2691 2690 2689 2688 2688 2689 2689 2690 2690 2691 2692
2748 2746 2744 2742 2740 2738 2736 2734 2733 2731 2729 2727 2725 2724 2722 2721 2719 2718 2716 2714 2713 2711 2709 2707 2705 2703 2702 2701 2699 2698 2696 2695 2693 2692 2690 2688 2687 2685 2683 2682 2681 2680 2679 2678 2677 2676 2676 2676 2676 2677 2677 2677 2678 2678 2679 2680 2681 2682 2683 2684 2685 2686 2687 2688 2689 2690 2691 2691 2691 2691 2692 2692 2693 2693 2693 2693 2692 2691 2691 2690 2690 2691 2691 2692 2692 2693
2747 2746 2744 2742 2740 2738 2736 2734 2732 2730 2728 2727 2725 2723 2721 2720 2718 2717 2715 2714 2712 2711 2709 2707 2705 2704 2702 2701 2699 2698 2697 2695 2693 2692 2690 2689 2687 2685 2684 2682 2681 2679 2678 2678 2677 2676 2676 2676 2676 2677 2677 2678 2678 2679 2680 2681 2682 2683 2684 2685 2686 2688 2689 2690 2691 2692 2692 2693 2693 2693 2693 2694 2694 2694 2695 2695 2694 2694 2693 2693 2693 2693 2693 2693 2694 2694